Flag for Germany Weather past 2 weeks in Schwäbisch Hall, Baden-Württemberg, Germany

Now
79 °F

Overcast.


Feels Like: 79 °F
Forecast: 52 / 70 °F
Wind: 8 mph from West

Location: Oehringen

Current Time: Sep 1, 2015 at 1:08:59 PM

Latest Report: Sep 1, 2015 at 12:00 PM


Visibility: 22 mi

Pressure: 29.80 "Hg

Humidity: 46%

Dew point: 56 °F

Location of Schwäbisch HallLocation

Historic Weather in Schwäbisch Hall — Graph

°F

Schwäbisch Hall temperature yesterday

Maximum temperature yesterday: 93 °F (at 6:00 PM)
Minimum temperature yesterday: 65 °F (at 7:00 AM)
Average temperature yesterday: 79 °F

Past Weeks' High & Low Weather Summary

 TemperatureHumidityPressure
High93 °F (Aug 31, 6:00 PM)99% (Aug 21, 8:00 AM)30.29 "Hg (Aug 21, 8:00 AM)
Low51 °F (Aug 26, 7:00 AM)27% (Aug 22, 2:00 PM)29.68 "Hg (Aug 24, 3:00 PM)
Average68 °F67%30.01 "Hg
* Reported Aug 17 12:00 Noon — Sep 1 12:00 Noon, Schwäbisch Hall, Weather by CustomWeather, © 2015

Note: Actual official high and low records may vary slightly from our data, if they occured in-between our weather recording intervals... More about our weather records

Advertising

Schwäbisch Hall weather history for previous 24 hours

 ConditionsComfort  
Time TempWeatherWind HumidityBarometerVisibility
12:00 PM
Tue, Sep 1
79 °FOvercast.8 mph46%29.80 "Hg22 mi
11:00 AM76 °FOvercast.2 mph56%29.78 "Hg17 mi
10:00 AM76 °FOvercast.2 mph58%29.78 "Hg19 mi
9:00 AM74 °FScattered clouds.1 mph60%29.78 "Hg13 mi
8:00 AM67 °FSunny.1 mph72%29.81 "Hg12 mi
7:00 AM65 °FSunny.1 mph76%29.82 "Hg14 mi
5:00 AM67 °FClear.2 mph72%29.83 "Hg22 mi
4:00 AM68 °FPassing clouds.2 mph69%29.84 "Hg19 mi
3:00 AM70 °FClear.2 mph62%29.83 "Hg22 mi
2:00 AM71 °FPassing clouds.2 mph64%29.85 "Hg22 mi
1:00 AM72 °FClear.1 mph61%29.84 "Hg22 mi
11:00 PM
Mon, Aug 31
73 °FClear.2 mph62%29.84 "Hg19 mi
10:00 PM76 °FClear.2 mph59%29.83 "Hg22 mi
9:00 PM81 °FPassing clouds.1 mph46%29.82 "Hg22 mi
8:00 PM86 °FPassing clouds.2 mph37%29.80 "Hg25 mi
7:00 PM91 °FSunny.3 mph29%29.80 "Hg31 mi
6:00 PM93 °FSunny.2 mph29%29.80 "Hg22 mi
5:00 PM92 °FSunny.3 mph30%29.82 "Hg28 mi
4:00 PM91 °FSunny.2 mph28%29.85 "Hg28 mi
3:00 PM91 °FSunny.3 mph27%29.87 "Hg22 mi
2:00 PM89 °FSunny.3 mph28%29.89 "Hg34 mi
1:00 PM86 °FSunny.3 mph34%29.91 "Hg22 mi
Weather by CustomWeather, © 2015

See weather overviewHow to use our weather pages